STARLINK-34394 (64669 NORAD) Tracking and Keplerian Element Data

This shows tracking and keplerian element data for the satellite.

Feedback or suggestion? Click here.




ElementValue
Catalog64669
NameSTARLINK-34394
Epoch Orbit2805
Epoch Day353.81511874
Epoch Year2025
RAAN138.1471
Inclination53.1587
Eccentricity1.63E-05
Argument of Perigee348.0406
Mean Anonmoly12.0591
Mean Motion15.30217998
Decay Rate0.00027615
L11 64669U 25139F 25353.81511874 .00027615 00000+0 94049-3 0 9993
L22 64669 53.1587 138.1471 0000163 348.0406 12.0591 15.30217998 28050



Live tracking and technical data element details for STARLINK-34394 (NORAD 64669). STARLINK-34394 can be tracked NOW for your location showing map with azimuth and elevation plus other details from your city location.







IsCatalogInMostPopularTable: catalog: 64669, numindb: 3
Update: records affected: 1



GetName: 64669 STARLINK-34394

Hit Count: updated at: Sun, 08 Feb 2026 18:15:20 GMT